Carlton, MN

1:13 AM CST on January 20, 2017 (GMT -0600)
Cloquet Carlton County

Weather History for KCOQ - June, 2013

Change the Weather History Date:

Tuesday, June 11, 2013

  Actual Average Record
Temperature  
Mean Temperature 66 °F -  
Max Temperature 78 °F 66 °F 80 °F (1997)
Min Temperature 55 °F 45 °F 35 °F (2006)
Cooling Degree Days 2    
Growing Degree Days 16 (Base 50)    
Moisture  
Dew Point 45 °F    
Average Humidity 53    
Maximum Humidity 94    
Minimum Humidity 16    
Precipitation  
Precipitation 0.00 in - - ()
Sea Level Pressure  
Sea Level Pressure 29.87 in    
Wind  
Wind Speed 4 mph (NW)    
Max Wind Speed 9 mph    
Max Gust Speed -    
Visibility 9 miles    
Events Thunderstorm    
Averages and records for this station are not official NWS values.
T = Trace of Precipitation, MM = Missing Value Source: NWS Daily Summary

Daily Weather History Graph

Daily Weather History Graph

Search for Another Location

Airport or City:

Trip Planner

Search our weather history database for the weather conditions in past years. The results will help you decide how hot, cold, wet, or windy it might be!

Date:

Astronomy

Jun. 11, 2013 Rise Set
Actual Time 5:16 AM CDT 9:03 PM CDT
Civil Twilight 4:36 AM CDT 9:42 PM CDT
Nautical Twilight 3:43 AM CDT 10:36 PM CDT
Astronomical Twilight 2:27 AM CDT 11:52 PM CDT
Moon 8:07 AM CDT (6/11) 10:57 PM CDT (6/11)
Length of Visible Light 17h 06m
Length of Day
15h 47m
Waxing Crescent, 8% of the Moon is Illuminated
Jun 11
Waxing Crescent
Jun 16
First Quarter
Jun 23
Full
Jun 29
Last Quarter
Jul 8
New

Hourly Weather History & Observations

Time (CDT) Temp. Dew Point Humidity Pressure Visibility Wind Dir Wind Speed Gust Speed Precip Events Conditions
12:16 AM 60.8 °F 55.4 °F 82% 29.83 in 10.0 mi SW 4.6 mph - N/A   Overcast
12:36 AM 60.8 °F 55.4 °F 82% 29.84 in 10.0 mi SW 4.6 mph - N/A   Mostly Cloudy
12:55 AM 60.8 °F 55.4 °F 82% 29.84 in 10.0 mi SW 4.6 mph - N/A   Mostly Cloudy
1:16 AM 60.8 °F 55.4 °F 82% 29.84 in 10.0 mi WSW 4.6 mph - N/A   Scattered Clouds
1:36 AM 60.8 °F 55.4 °F 82% 29.84 in 10.0 mi SW 6.9 mph - N/A   Mostly Cloudy
1:55 AM 59.0 °F 53.6 °F 82% 29.84 in 10.0 mi SW 4.6 mph - N/A   Scattered Clouds
2:16 AM 59.0 °F 53.6 °F 82% 29.84 in 10.0 mi SSW 5.8 mph - N/A   Clear
2:36 AM 59.0 °F 53.6 °F 82% 29.84 in 10.0 mi SW 3.5 mph - N/A   Clear
2:55 AM 59.0 °F 53.6 °F 82% 29.84 in 10.0 mi West 3.5 mph - N/A   Clear
3:16 AM 57.2 °F 53.6 °F 88% 29.84 in 10.0 mi NNW 4.6 mph - N/A   Scattered Clouds
3:36 AM 55.4 °F 53.6 °F 94% 29.85 in 1.8 mi NNW 3.5 mph - N/A   Mostly Cloudy
3:55 AM 55.4 °F 51.8 °F 88% 29.86 in 5.0 mi NNW 3.5 mph - N/A   Mostly Cloudy
4:16 AM 55.4 °F 51.8 °F 88% 29.86 in 5.0 mi Calm Calm - N/A   Overcast
4:36 AM 55.4 °F 51.8 °F 88% 29.86 in 3.0 mi Calm Calm - N/A   Overcast
4:55 AM 55.4 °F 51.8 °F 88% 29.86 in 2.5 mi Calm Calm - N/A   Mostly Cloudy
5:16 AM 55.4 °F 51.8 °F 88% 29.87 in 1.2 mi Calm Calm - N/A   Overcast
5:36 AM 55.4 °F 51.8 °F 88% 29.87 in 5.0 mi Calm Calm - N/A   Overcast
5:56 AM 55.4 °F 53.6 °F 94% 29.87 in 4.0 mi Calm Calm - N/A   Overcast
6:16 AM 55.4 °F 53.6 °F 94% 29.87 in 2.0 mi NNE 4.6 mph - N/A   Overcast
6:36 AM 57.2 °F 53.6 °F 88% 29.88 in 3.0 mi Calm Calm - N/A   Mostly Cloudy
6:56 AM 59.0 °F 55.4 °F 88% 29.87 in 5.0 mi Calm Calm - N/A   Scattered Clouds
7:16 AM 60.8 °F 55.4 °F 82% 29.87 in 7.0 mi Calm Calm - N/A   Scattered Clouds
7:36 AM 62.6 °F 55.4 °F 77% 29.86 in 10.0 mi Calm Calm - N/A   Clear
7:56 AM 64.4 °F 57.2 °F 77% 29.86 in 10.0 mi Calm Calm - N/A   Clear
8:16 AM 64.4 °F 57.2 °F 77% 29.86 in 10.0 mi WNW 3.5 mph - N/A   Clear
8:36 AM 66.2 °F 57.2 °F 73% 29.86 in 10.0 mi NW 9.2 mph - N/A   Clear
8:56 AM 69.8 °F 55.4 °F 60% 29.87 in 10.0 mi NNW 8.1 mph - N/A   Clear
9:16 AM 69.8 °F 55.4 °F 60% 29.87 in 10.0 mi WNW 5.8 mph - N/A   Clear
9:36 AM 69.8 °F 55.4 °F 60% 29.87 in 10.0 mi Calm Calm - N/A   Clear
9:56 AM 69.8 °F 53.6 °F 56% 29.87 in 10.0 mi NNW 3.5 mph - N/A   Clear
10:16 AM 71.6 °F 51.8 °F 50% 29.87 in 10.0 mi WNW 5.8 mph - N/A   Clear
10:36 AM 73.4 °F 48.2 °F 41% 29.88 in 10.0 mi NNW 8.1 mph - N/A   Scattered Clouds
10:56 AM 71.6 °F 46.4 °F 41% 29.88 in 10.0 mi WNW 8.1 mph - N/A   Scattered Clouds
11:16 AM 73.4 °F 44.6 °F 36% 29.88 in 10.0 mi NW 6.9 mph - N/A   Scattered Clouds
11:36 AM 73.4 °F 46.4 °F 38% 29.88 in 10.0 mi NNW 3.5 mph - N/A   Unknown
11:56 AM 73.4 °F 42.8 °F 33% 29.88 in 10.0 mi NNW 3.5 mph - N/A   Clear
12:15 PM 75.2 °F 41.0 °F 29% 29.88 in 10.0 mi North 5.8 mph - N/A   Clear
12:36 PM 75.2 °F 39.2 °F 27% 29.87 in 10.0 mi North 9.2 mph - N/A   Clear
12:56 PM 75.2 °F 41.0 °F 29% 29.87 in 10.0 mi North 4.6 mph - N/A   Clear
1:15 PM 75.2 °F 35.6 °F 24% 29.87 in 10.0 mi Calm Calm - N/A   Clear
1:36 PM 75.2 °F 39.2 °F 27% 29.86 in 10.0 mi North 4.6 mph - N/A   Clear
1:56 PM 78.8 °F 33.8 °F 20% 29.86 in 10.0 mi NW 9.2 mph - N/A   Clear
2:15 PM 77.0 °F 33.8 °F 21% 29.87 in 10.0 mi North 4.6 mph - N/A   Clear
2:36 PM 77.0 °F 35.6 °F 22% 29.87 in 10.0 mi North 6.9 mph - N/A   Clear
2:56 PM 77.0 °F 35.6 °F 22% 29.86 in 10.0 mi Calm Calm - N/A   Clear
3:15 PM 78.8 °F 33.8 °F 20% 29.86 in 10.0 mi West 3.5 mph - N/A   Clear
3:36 PM 78.8 °F 33.8 °F 20% 29.85 in 10.0 mi NNW 8.1 mph - N/A   Clear
3:56 PM 78.8 °F 33.8 °F 20% 29.86 in 10.0 mi NNE 3.5 mph - N/A   Clear
4:15 PM 78.8 °F 33.8 °F 20% 29.86 in 10.0 mi West 9.2 mph - N/A   Clear
4:36 PM 78.8 °F 35.6 °F 21% 29.86 in 10.0 mi North 4.6 mph - N/A   Clear
4:56 PM 78.8 °F 33.8 °F 20% 29.87 in 10.0 mi NW 8.1 mph - N/A   Clear
5:15 PM 78.8 °F 35.6 °F 21% 29.86 in 10.0 mi North 5.8 mph - N/A   Clear
5:36 PM 78.8 °F 33.8 °F 20% 29.85 in 10.0 mi WNW 9.2 mph - N/A   Clear
5:56 PM 78.8 °F 28.4 °F 16% 29.85 in 10.0 mi NW 5.8 mph - N/A   Clear
6:16 PM 78.8 °F 30.2 °F 17% 29.85 in 10.0 mi WNW 6.9 mph - N/A   Clear
6:36 PM 78.8 °F 30.2 °F 17% 29.86 in 10.0 mi WNW 6.9 mph - N/A   Clear
6:56 PM 77.0 °F 33.8 °F 21% 29.86 in 10.0 mi NNW 6.9 mph - N/A   Clear
7:16 PM 77.0 °F 33.8 °F 21% 29.87 in 10.0 mi WNW 5.8 mph - N/A   Clear
7:36 PM 75.2 °F 33.8 °F 22% 29.87 in 10.0 mi NW 5.8 mph - N/A   Clear
7:56 PM 75.2 °F 33.8 °F 22% 29.87 in 10.0 mi NW 5.8 mph - N/A   Clear
8:16 PM 73.4 °F 37.4 °F 27% 29.87 in 10.0 mi NW 3.5 mph - N/A   Clear
8:36 PM 73.4 °F 35.6 °F 25% 29.88 in 10.0 mi NW 3.5 mph - N/A   Clear
8:56 PM 68.0 °F 42.8 °F 40% 29.87 in 10.0 mi Calm Calm - N/A   Clear
9:16 PM 62.6 °F 46.4 °F 55% 29.88 in 10.0 mi Calm Calm - N/A   Clear
9:36 PM 62.6 °F 44.6 °F 52% 29.89 in 10.0 mi Calm Calm - N/A   Clear
9:56 PM 62.6 °F 46.4 °F 55% 29.89 in 10.0 mi Calm Calm - N/A   Clear
10:16 PM 60.8 °F 46.4 °F 59% 29.89 in 10.0 mi NNW 4.6 mph - N/A   Clear
10:36 PM 59.0 °F 46.4 °F 63% 29.89 in 10.0 mi NW 3.5 mph - N/A   Clear
10:56 PM 57.2 °F 46.4 °F 67% 29.90 in 10.0 mi Calm Calm - N/A   Clear
11:16 PM 57.2 °F 46.4 °F 67% 29.90 in 10.0 mi NNW 3.5 mph - N/A   Clear
11:36 PM 57.2 °F 44.6 °F 63% 29.91 in 10.0 mi NW 3.5 mph - N/A Thunderstorm Clear
11:55 PM 55.4 °F 44.6 °F 67% 29.92 in 10.0 mi WNW 3.5 mph - N/A   Clear